Location: Street
(51.1247°N, 2.7429°W)
Time: 10:36:00
(UTC+00:00)

Tiros 1 - Pass Details

Date: 03 December 2020
Orbit: 630 x 663 km, 48.4° (Epoch: 21 January)

Event Time Altitude Azimuth Distance (km) Brightness Sun altitude
Rises 20:16:37 0° 276° (W) 2,987 11.5 -38.2°
Reaches altitude 10° 20:20:10 10° 250° (WSW) 2,064 10.3 -38.8°
Enters shadow 20:20:21 11° 248° (WSW) 2,032 10.2 -38.8°
Maximum altitude 20:22:19 13° 222° (SW) 1,858 - -39.1°
Drops below altitude 10° 20:24:28 10° 195° (SSW) 2,049 - -39.4°
Sets 20:27:59 0° 168° (SSE) 2,946 - -39.9°
